Погода в Липно

Польша     52°50′42″N   19°10′45″E
темп.,
°C
ветер,
м/с
пор.,
м/с
влажн.,
%
обл.,
%
осадки,
мм/ч
давл.,
гПа
погр.,
м
25 февраля, чт
чт2501:00+7зюз239023 0.0 103022
04:00+6зюз33920 0.0 102922
07:00+5юз33920 0.0 102927
10:00+9юз35860 0.0 1028186
13:00+13юз46710 0.0 1027366
16:00+13ююз35740 0.0 1025120
19:00+9юз47830 0.0 1025103
22:00+8зюз48880 0.0 1025149
26 февраля, пт
пт2601:00+7з47930 0.0 1026141
04:00+6з479716 0.0 1025139
07:00+5зсз499658 0.0 1026230
10:00+7з5973100 0.0 1026513
13:00+9зсз71062100 0.0 1026952
16:00+8зсз61063100 0.0 10251124
19:00+6зсз6137283 0.0 1025915
22:00+5зсз7158267 0.0 1025736
27 февраля, сб
сб2701:00+5зсз7138065 0.0 1025867
04:00+4зсз6138583 0.0 1026709
07:00+3сз6128790 0.0 1027564
10:00+5сз6107343 0.0 1028763
13:00+7ссз796122 0.0 10291132
16:00+7сз68590 0.0 10301249
19:00+4ссз49760 0.0 1032255
22:00+1ссз37880 0.0 1032186
28 февраля, вс
вс2801:000сз37900 0.0 1034171
04:000сз36880 0.0 1034172
07:000сз258433 0.0 1034152
10:00+4зсз346554 0.0 1034342
13:00+7сз455742 0.0 1034679
16:00+6зсз24620 0.0 1033209
19:00+3з33760 0.0 103437
22:00+2зсз34810 0.0 103464
1 марта, пн
пн101:00+1зсз33920 0.0 103554
04:000сз33960 0.0 103479
07:00+1ссз239627 0.0 1035137
10:00+4ююз10740 0.0 1039299
13:00+6зюз22650 0.0 1039640
16:00+6з22670 0.0 1038374
19:00+3зюз12808 0.0 103922
22:00+2юз238610 0.0 104027